Terug naar catalogus

STARLINK-32896

ActiefCommunicatieVLEO
NORAD 62959·PAYLOAD·🇺🇸 United States

Gelanceerd Feb 11, 2025 vanaf Vandenberg Space Force Base

Loading…

Volgende Passages (komende 24 uur)

TLE

VersSource: CelesTrak SupGP

Epoch: Sep 14, 2026, 21:15 UTC

1 62959C 25029M   26257.88590278  .00000712  00000+0  21030-4 0  2574
2 62959  53.1590  72.2995 0001262  83.5563 273.5273 15.34378269    19

Volg STARLINK-32896 in realtime met AllMySat

Download on the App Store